"Period start","avg(HW err(1)/warn(2) (#))","avg(Visibility (m))","avg(Weather code (#))","avg(Precip intensity (mm/h))","min(HW err(1)/warn(2) (#))","max(HW err(1)/warn(2) (#))","std(HW err(1)/warn(2) (#))","med(HW err(1)/warn(2) (#))","min(Visibility (m))","max(Visibility (m))","std(Visibility (m))","med(Visibility (m))","min(Weather code (#))","max(Weather code (#))","std(Weather code (#))","med(Weather code (#))","min(Precip intensity (mm/h))","max(Precip intensity (mm/h))","std(Precip intensity (mm/h))","med(Precip intensity (mm/h))"
2017-08-12 00:00:00,0,45078,0,0.00,0,0,0,0,37895,50000,3697,46152,0,0,0,0,0.00,0.00,0.00,0.00
2017-08-12 00:10:00,0,44872,0,0.00,0,0,0,0,34910,50000,4437,45010,0,0,0,0,0.00,0.00,0.00,0.00
2017-08-12 00:20:00,0,45974,0,0.00,0,0,0,0,41208,50000,3040,45468,0,0,0,0,0.00,0.00,0.00,0.00
2017-08-12 00:30:00,0,47007,0,0.00,0,0,0,0,41022,50000,2872,47374,0,0,0,0,0.00,0.00,0.00,0.00
2017-08-12 00:40:00,0,48921,0,0.00,0,0,0,0,44321,50000,1737,50000,0,0,0,0,0.00,0.00,0.00,0.00
2017-08-12 00:50:00,0,48461,0,0.00,0,0,0,0,46081,50000,1618,49150,0,0,0,0,0.00,0.00,0.00,0.00
2017-08-12 01:00:00,0,48058,0,0.00,0,0,0,0,41049,50000,3057,50000,0,0,0,0,0.00,0.00,0.00,0.00
2017-08-12 01:10:00,0,20442,52,9.56,0,0,0,0,7981,47871,13649,12166,0,62,18,61,0.00,28.70,8.83,9.57
2017-08-12 01:20:00,0,7722,62,30.55,0,2,1,0,6689,8740,681,7652,62,63,0,62,23.50,49.40,7.20,29.60
2017-08-12 01:30:00,2,11452,62,22.48,0,2,1,2,9759,14533,1464,10692,61,62,0,62,7.05,35.20,9.26,23.25
2017-08-12 01:40:00,2,14883,62,16.80,2,2,0,2,12204,19191,2096,14324,61,62,0,62,4.95,28.80,7.49,14.98
2017-08-12 01:50:00,2,21744,61,3.80,2,2,0,2,15779,30943,4553,21500,61,61,0,61,2.40,7.60,1.50,3.27
2017-08-12 02:00:00,1,25680,59,0.33,0,2,1,2,20423,35277,4911,23228,51,61,4,61,0.00,1.00,0.30,0.20
2017-08-12 02:10:00,0,23965,23,0.96,0,0,0,0,13863,32630,5703,23204,0,61,28,0,0.00,5.75,1.81,0.00
2017-08-12 02:20:00,2,5629,61,71.29,0,2,1,2,1748,9518,2310,4938,52,63,3,62,4.25,236.15,69.49,62.42
2017-08-12 02:30:00,2,22088,61,0.74,2,2,0,2,11719,37065,8225,17984,61,61,0,61,0.00,3.85,1.10,0.25
2017-08-12 02:40:00,1,45885,0,0.00,0,2,1,0,40112,50000,3393,46666,0,0,0,0,0.00,0.00,0.00,0.00
2017-08-12 02:50:00,0,37454,0,0.00,0,0,0,0,30818,48017,6414,34857,0,0,0,0,0.00,0.00,0.00,0.00
2017-08-12 03:00:00,0,33572,43,0.27,0,0,0,0,27489,45403,5208,32212,0,61,22,51,0.00,0.95,0.31,0.17
2017-08-12 03:10:00,0,43765,5,0.00,0,0,0,0,34681,50000,4831,44550,0,51,15,0,0.00,0.00,0.00,0.00
2017-08-12 03:20:00,0,38996,33,0.11,0,0,0,0,27811,50000,7592,39972,0,61,27,51,0.00,0.65,0.20,0.00
2017-08-12 03:30:00,0,44238,5,0.00,0,0,0,0,35544,50000,4791,44717,0,51,15,0,0.00,0.00,0.00,0.00
2017-08-12 03:40:00,0,39785,12,0.43,0,0,0,0,19350,50000,10693,43028,0,61,24,0,0.00,3.25,0.99,0.00
2017-08-12 03:50:00,0,24520,57,1.14,0,0,0,0,18901,28918,3218,24920,51,61,5,61,0.10,4.10,1.26,0.52
2017-08-12 04:00:00,0,29908,30,0.26,0,0,0,0,23598,40863,4921,29071,0,61,30,26,0.00,1.55,0.48,0.00
2017-08-12 04:10:00,0,27788,0,0.00,0,0,0,0,23567,34795,3277,27140,0,0,0,0,0.00,0.00,0.00,0.00
2017-08-12 04:20:00,0,34899,0,0.00,0,0,0,0,27949,40382,3736,35134,0,0,0,0,0.00,0.00,0.00,0.00
2017-08-12 04:30:00,0,38197,0,0.00,0,0,0,0,32059,45649,4133,38898,0,0,0,0,0.00,0.00,0.00,0.00
2017-08-12 04:40:00,0,42423,0,0.00,0,0,0,0,34334,47670,3483,42640,0,0,0,0,0.00,0.00,0.00,0.00
2017-08-12 04:50:00,0,39324,0,0.00,0,0,0,0,29060,50000,6405,38984,0,0,0,0,0.00,0.00,0.00,0.00
2017-08-12 05:00:00,0,35902,22,0.11,0,0,0,0,20544,48059,7488,37486,0,61,28,0,0.00,0.35,0.13,0.00
2017-08-12 05:10:00,0,26398,51,0.27,0,0,0,0,20171,34264,4780,26247,51,51,0,51,0.05,0.50,0.15,0.25
2017-08-12 05:20:00,0,24174,36,0.41,0,0,0,0,19463,28218,2373,23928,0,51,23,51,0.00,1.05,0.35,0.42
2017-08-12 05:30:00,0,19813,48,0.34,0,0,0,0,17714,22012,1384,20153,0,61,16,51,0.00,0.55,0.16,0.38
2017-08-12 05:40:00,0,25608,55,0.69,0,0,0,0,19282,34320,4371,25738,51,61,5,51,0.20,1.95,0.53,0.45
2017-08-12 05:50:00,0,24876,51,0.28,0,0,0,0,17272,32860,4420,24294,51,51,0,51,0.10,0.45,0.11,0.25
2017-08-12 06:00:00,0,21661,56,1.56,0,0,0,0,16525,29390,3569,21064,51,61,4,52,1.00,2.25,0.38,1.52
2017-08-12 06:10:00,0,27515,51,0.45,0,0,0,0,21221,36810,4214,26388,51,52,0,51,0.15,0.75,0.21,0.48
2017-08-12 06:20:00,0,26429,54,0.62,0,0,0,0,22071,33916,4136,24764,51,61,5,51,0.15,1.10,0.33,0.68
2017-08-12 06:30:00,0,25548,54,0.37,0,0,0,0,21033,35153,4237,25725,51,61,5,51,0.15,0.80,0.23,0.30
2017-08-12 06:40:00,0,25712,55,0.22,0,0,0,0,20289,34805,4237,25952,51,61,5,51,0.05,0.45,0.13,0.17
2017-08-12 06:50:00,0,26088,52,0.50,0,0,0,0,20562,38636,5366,23706,51,52,0,52,0.10,1.00,0.26,0.42
2017-08-12 07:00:00,0,22668,51,0.40,0,0,0,0,17001,30927,5097,20959,51,52,0,51,0.15,0.75,0.18,0.38
2017-08-12 07:10:00,0,22945,41,0.19,0,0,0,0,14493,31715,5045,22120,0,51,14,41,0.00,0.50,0.17,0.15
2017-08-12 07:20:00,0,35059,0,0.00,0,0,0,0,27315,42035,3937,35464,0,0,0,0,0.00,0.00,0.00,0.00
2017-08-12 07:30:00,0,38116,0,0.00,0,0,0,0,30873,44517,4307,38344,0,0,0,0,0.00,0.00,0.00,0.00
2017-08-12 07:40:00,0,41073,0,0.00,0,0,0,0,31488,50000,5948,41030,0,0,0,0,0.00,0.00,0.00,0.00
2017-08-12 07:50:00,0,39975,0,0.00,0,0,0,0,31765,47660,4643,40062,0,0,0,0,0.00,0.00,0.00,0.00
2017-08-12 08:00:00,0,45261,0,0.00,0,0,0,0,39754,47783,2194,45148,0,0,0,0,0.00,0.00,0.00,0.00
2017-08-12 08:10:00,0,42611,0,0.00,0,0,0,0,36708,46920,2959,43216,0,0,0,0,0.00,0.00,0.00,0.00
2017-08-12 08:20:00,0,40039,0,0.00,0,0,0,0,36780,43984,2083,39493,0,0,0,0,0.00,0.00,0.00,0.00
2017-08-12 08:30:00,0,39396,0,0.00,0,0,0,0,35394,42776,2288,40173,0,0,0,0,0.00,0.00,0.00,0.00
2017-08-12 08:40:00,0,35721,0,0.00,0,0,0,0,30720,39520,2503,35750,0,0,0,0,0.00,0.00,0.00,0.00
2017-08-12 08:50:00,0,38184,0,0.00,0,1,0,0,34857,43974,2514,38209,0,0,0,0,0.00,0.00,0.00,0.00
2017-08-12 09:00:00,0,24940,8,0.04,0,0,0,0,14533,36581,8425,23433,0,41,16,0,0.00,0.25,0.08,0.00
2017-08-12 09:10:00,0,17476,27,0.17,0,0,0,0,12720,24739,3634,16867,0,61,22,41,0.00,1.20,0.35,0.10
2017-08-12 09:20:00,0,19537,58,2.68,0,0,0,0,12867,23948,3599,20934,51,61,5,61,0.00,7.00,2.97,0.55
2017-08-12 09:30:00,0,15529,58,0.75,0,0,0,0,12310,21064,2296,15324,51,61,4,61,0.25,1.70,0.48,0.62
2017-08-12 09:40:00,0,17839,51,0.26,0,0,0,0,11962,24329,4018,18552,51,51,0,51,0.05,0.70,0.24,0.15
2017-08-12 09:50:00,0,16733,55,2.69,0,0,0,0,13416,20407,2274,16401,51,61,4,52,1.15,4.45,0.96,2.58
2017-08-12 10:00:00,0,13506,61,5.68,0,0,0,0,11212,18183,2074,13708,61,61,0,61,2.45,8.80,2.10,5.17
2017-08-12 10:10:00,0,7262,62,12.24,0,0,0,0,5114,10734,1903,6674,61,62,0,62,6.70,19.35,4.87,10.20
2017-08-12 10:20:00,0,5220,62,17.46,0,0,0,0,4604,5913,441,5108,62,62,0,62,12.30,23.30,2.94,17.35
2017-08-12 10:30:00,0,4816,62,16.07,0,0,0,0,4055,5899,643,4554,61,62,0,62,9.65,25.70,4.70,14.72
2017-08-12 10:40:00,0,6200,62,16.86,0,0,0,0,5090,7689,813,6014,61,62,0,62,6.60,32.65,7.95,15.48
2017-08-12 10:50:00,0,8131,62,13.62,0,0,0,0,7032,9151,699,8237,61,62,0,62,5.60,22.70,6.51,12.15
2017-08-12 11:00:00,0,10818,61,3.90,0,0,0,0,9592,12558,869,10723,61,61,0,61,1.90,7.30,1.48,3.62
2017-08-12 11:10:00,0,5759,60,3.50,0,0,0,0,4140,9158,1599,4988,52,61,3,61,1.45,7.50,1.73,2.78
2017-08-12 11:20:00,0,6991,52,1.56,0,0,0,0,5742,8300,867,7099,52,52,0,52,0.95,2.25,0.44,1.35
2017-08-12 11:30:00,0,4149,60,7.93,0,0,0,0,3196,6208,1083,3638,52,62,3,61,3.85,11.45,2.57,7.65
2017-08-12 11:40:00,0,3924,62,19.88,0,0,0,0,3379,4668,334,3950,61,63,1,62,3.80,40.45,11.60,19.33
2017-08-12 11:50:00,0,3956,62,25.70,0,0,0,0,3597,4555,288,3881,62,62,0,62,12.15,34.50,6.23,25.55
2017-08-12 12:00:00,0,5928,62,14.03,0,0,0,0,4163,9222,1407,5452,61,62,0,62,4.95,27.65,5.45,12.40
2017-08-12 12:10:00,0,11143,61,4.58,0,0,0,0,8794,13806,1426,10966,61,61,0,61,3.50,5.90,0.82,4.47
2017-08-12 12:20:00,0,4182,61,3.87,0,0,0,0,2850,7694,1615,3261,61,61,0,61,0.85,6.70,2.20,4.22
2017-08-12 12:30:00,0,3379,54,0.94,0,0,0,0,2845,4218,366,3276,52,61,4,52,0.50,2.20,0.46,0.83
2017-08-12 12:40:00,0,3908,53,6.14,0,0,0,0,2886,4546,534,4094,52,53,0,53,2.20,8.80,2.21,6.18
2017-08-12 12:50:00,0,4250,56,9.23,0,0,0,0,3050,5591,895,4292,53,62,4,53,5.70,13.35,2.36,9.07
2017-08-12 13:00:00,0,4862,62,17.43,0,0,0,0,2400,11536,2916,3817,61,62,0,62,2.35,33.15,10.04,16.42
2017-08-12 13:10:00,0,13142,57,0.15,0,0,0,0,9613,17292,2325,12836,51,61,5,61,0.00,0.70,0.20,0.05
2017-08-12 13:20:00,0,9602,28,1.11,0,0,0,0,5159,14689,3472,11114,0,61,28,26,0.00,4.30,1.54,0.03
2017-08-12 13:30:00,0,35041,5,0.02,0,0,0,0,7484,50000,14796,42496,0,52,16,0,0.00,0.20,0.06,0.00
2017-08-12 13:40:00,0,49862,0,0.00,0,0,0,0,48618,50000,415,50000,0,0,0,0,0.00,0.00,0.00,0.00
2017-08-12 13:50:00,0,49901,0,0.00,0,0,0,0,49012,50000,296,50000,0,0,0,0,0.00,0.00,0.00,0.00
2017-08-12 14:00:00,0,21083,40,3.19,0,0,0,0,5593,50000,16016,15620,0,62,27,52,0.00,10.00,3.44,1.77
2017-08-12 14:10:00,0,16522,47,2.00,0,0,0,0,6833,42655,11341,10326,0,61,24,61,0.00,6.30,2.28,1.02
2017-08-12 14:20:00,0,50000,0,0.00,0,0,0,0,50000,50000,0,50000,0,0,0,0,0.00,0.00,0.00,0.00
2017-08-12 14:30:00,0,37538,43,0.12,0,0,0,0,11688,50000,15929,46922,0,61,22,51,0.00,0.40,0.11,0.10
2017-08-12 14:40:00,0,39998,55,0.10,0,0,0,0,16910,50000,9745,42457,51,61,5,51,0.00,0.45,0.14,0.05
2017-08-12 14:50:00,0,20003,53,0.40,0,0,0,0,7138,32341,9874,23250,51,61,4,51,0.00,1.25,0.42,0.25
2017-08-12 15:00:00,0,6748,52,1.53,0,0,0,0,5072,8346,903,6624,52,52,0,52,0.65,4.25,1.00,1.38
2017-08-12 15:10:00,0,7434,52,1.16,0,0,0,0,2641,11599,2773,6772,52,52,0,52,0.35,2.40,0.74,0.85
2017-08-12 15:20:00,0,9695,54,0.33,0,0,0,0,2746,14057,4127,11532,51,61,4,52,0.10,0.75,0.22,0.28
2017-08-12 15:30:00,0,12887,58,0.18,0,0,0,0,9480,15168,1857,13176,51,61,5,61,0.05,0.50,0.13,0.20
2017-08-12 15:40:00,0,7281,40,0.15,0,0,0,0,2669,11288,3536,9370,10,61,20,51,0.00,0.55,0.21,0.05
2017-08-12 15:50:00,0,16794,10,0.00,0,0,0,0,3854,31606,9040,17242,10,10,0,10,0.00,0.00,0.00,0.00
2017-08-12 16:00:00,0,29650,2,0.00,0,0,0,0,23245,40370,4979,27828,0,10,4,0,0.00,0.00,0.00,0.00
2017-08-12 16:10:00,0,36092,0,0.00,0,0,0,0,30774,44939,4104,35366,0,0,0,0,0.00,0.00,0.00,0.00
2017-08-12 16:20:00,0,44001,0,0.00,0,0,0,0,32266,50000,6525,47491,0,0,0,0,0.00,0.00,0.00,0.00
2017-08-12 16:30:00,0,50000,0,0.00,0,0,0,0,50000,50000,0,50000,0,0,0,0,0.00,0.00,0.00,0.00
2017-08-12 16:40:00,0,50000,0,0.00,0,0,0,0,50000,50000,0,50000,0,0,0,0,0.00,0.00,0.00,0.00
2017-08-12 16:50:00,0,50000,0,0.00,0,0,0,0,50000,50000,0,50000,0,0,0,0,0.00,0.00,0.00,0.00
2017-08-12 17:00:00,0,49988,0,0.00,0,0,0,0,49931,50000,24,50000,0,0,0,0,0.00,0.00,0.00,0.00
2017-08-12 17:10:00,0,50000,0,0.00,0,0,0,0,50000,50000,0,50000,0,0,0,0,0.00,0.00,0.00,0.00
2017-08-12 17:20:00,0,50000,0,0.00,0,1,0,0,50000,50000,0,50000,0,0,0,0,0.00,0.00,0.00,0.00
2017-08-12 17:30:00,0,50000,0,0.00,0,0,0,0,50000,50000,0,50000,0,0,0,0,0.00,0.00,0.00,0.00
2017-08-12 17:40:00,0,50000,0,0.00,0,0,0,0,50000,50000,0,50000,0,0,0,0,0.00,0.00,0.00,0.00
2017-08-12 17:50:00,0,50000,0,0.00,0,0,0,0,50000,50000,0,50000,0,0,0,0,0.00,0.00,0.00,0.00
2017-08-12 18:00:00,0,50000,0,0.00,0,0,0,0,50000,50000,0,50000,0,0,0,0,0.00,0.00,0.00,0.00
2017-08-12 18:10:00,0,33601,0,0.00,0,0,0,0,11690,50000,15324,38858,0,0,0,0,0.00,0.00,0.00,0.00
2017-08-12 18:20:00,0,50000,0,0.00,0,0,0,0,50000,50000,0,50000,0,0,0,0,0.00,0.00,0.00,0.00
2017-08-12 18:30:00,0,50000,0,0.00,0,0,0,0,50000,50000,0,50000,0,0,0,0,0.00,0.00,0.00,0.00
2017-08-12 18:40:00,0,50000,0,0.00,0,0,0,0,50000,50000,0,50000,0,0,0,0,0.00,0.00,0.00,0.00
2017-08-12 18:50:00,0,50000,0,0.00,0,0,0,0,50000,50000,0,50000,0,0,0,0,0.00,0.00,0.00,0.00
2017-08-12 19:00:00,0,50000,0,0.00,0,0,0,0,50000,50000,0,50000,0,0,0,0,0.00,0.00,0.00,0.00
2017-08-12 19:10:00,0,49838,0,0.00,0,0,0,0,48379,50000,486,50000,0,0,0,0,0.00,0.00,0.00,0.00
2017-08-12 19:20:00,0,49968,0,0.00,0,0,0,0,49683,50000,95,50000,0,0,0,0,0.00,0.00,0.00,0.00
2017-08-12 19:30:00,0,49934,0,0.00,0,0,0,0,49336,50000,199,50000,0,0,0,0,0.00,0.00,0.00,0.00
2017-08-12 19:40:00,0,50000,0,0.00,0,0,0,0,50000,50000,0,50000,0,0,0,0,0.00,0.00,0.00,0.00
2017-08-12 19:50:00,0,50000,0,0.00,0,0,0,0,50000,50000,0,50000,0,0,0,0,0.00,0.00,0.00,0.00
2017-08-12 20:00:00,0,47860,0,0.00,0,0,0,0,28626,50000,6411,50000,0,0,0,0,0.00,0.00,0.00,0.00
2017-08-12 20:10:00,0,41524,37,1.07,0,0,0,0,15638,50000,10271,44507,0,61,30,61,0.00,9.10,2.69,0.05
2017-08-12 20:20:00,0,48918,55,1.22,0,0,0,0,43147,50000,2258,50000,0,61,18,61,0.00,4.60,1.30,1.00
2017-08-12 20:30:00,0,49881,0,0.00,0,0,0,0,48813,50000,356,50000,0,0,0,0,0.00,0.00,0.00,0.00
2017-08-12 20:40:00,0,50000,0,0.00,0,0,0,0,50000,50000,0,50000,0,0,0,0,0.00,0.00,0.00,0.00
2017-08-12 20:50:00,0,50000,0,0.00,0,0,0,0,50000,50000,0,50000,0,0,0,0,0.00,0.00,0.00,0.00
2017-08-12 21:00:00,0,48741,0,0.00,0,0,0,0,41412,50000,2683,50000,0,0,0,0,0.00,0.00,0.00,0.00
2017-08-12 21:10:00,0,49338,0,0.00,0,0,0,0,46448,50000,1148,50000,0,0,0,0,0.00,0.00,0.00,0.00
2017-08-12 21:20:00,0,49471,0,0.00,0,0,0,0,46694,50000,1036,50000,0,0,0,0,0.00,0.00,0.00,0.00
2017-08-12 21:30:00,0,49252,0,0.00,0,0,0,0,45889,50000,1505,50000,0,0,0,0,0.00,0.00,0.00,0.00
2017-08-12 21:40:00,0,48327,0,0.00,0,0,0,0,39257,50000,3210,50000,0,0,0,0,0.00,0.00,0.00,0.00
2017-08-12 21:50:00,0,49726,0,0.00,0,0,0,0,48104,50000,596,50000,0,0,0,0,0.00,0.00,0.00,0.00
2017-08-12 22:00:00,0,49335,0,0.00,0,0,0,0,47795,50000,827,49960,0,0,0,0,0.00,0.00,0.00,0.00
2017-08-12 22:10:00,0,24853,0,0.00,0,0,0,0,19665,36666,5222,23798,0,0,0,0,0.00,0.00,0.00,0.00
2017-08-12 22:20:00,0,20629,0,0.00,0,0,0,0,19109,23231,1176,20063,0,0,0,0,0.00,0.00,0.00,0.00
2017-08-12 22:30:00,0,20070,0,0.00,0,0,0,0,16591,24647,2881,19347,0,0,0,0,0.00,0.00,0.00,0.00
2017-08-12 22:40:00,0,18100,0,0.00,0,0,0,0,13399,28501,4040,17436,0,0,0,0,0.00,0.00,0.00,0.00
2017-08-12 22:50:00,0,20534,0,0.00,0,0,0,0,16398,33107,4645,19203,0,0,0,0,0.00,0.00,0.00,0.00
2017-08-12 23:00:00,0,19589,0,0.00,0,0,0,0,16353,23691,2388,19500,0,0,0,0,0.00,0.00,0.00,0.00
2017-08-12 23:10:00,0,18328,0,0.00,0,0,0,0,16125,21687,1509,17777,0,0,0,0,0.00,0.00,0.00,0.00
2017-08-12 23:20:00,0,20094,0,0.00,0,0,0,0,16062,29757,4320,18526,0,0,0,0,0.00,0.00,0.00,0.00
2017-08-12 23:30:00,0,20966,0,0.00,0,0,0,0,17327,26547,2465,20806,0,0,0,0,0.00,0.00,0.00,0.00
2017-08-12 23:40:00,0,21091,0,0.00,0,0,0,0,18509,26074,2283,20356,0,0,0,0,0.00,0.00,0.00,0.00
2017-08-12 23:50:00,0,16981,0,0.00,0,0,0,0,14585,18553,1282,17355,0,0,0,0,0.00,0.00,0.00,0.00
